| time (UTC) | temp F | wind direction | speed knots | gust knots | rain 1hr in | rain 24hr in | rain mn in | humidity % | barometer mb |
| 20260505003534 | 56 | 43 | 7.8 | 17.4 | 0.00 | 0.00 | 0.00 | 75 | 1026.7 |
| 20260505003039 | 56 | 145 | 7.8 | 14.8 | 0.00 | 0.00 | 0.00 | 76 | 1026.9 |
| 20260505002534 | 55 | 72 | 7.0 | 17.4 | 0.00 | 0.00 | 0.00 | 77 | 1026.6 |
| 20260505002035 | 55 | 30 | 7.8 | 20.9 | 0.00 | 0.00 | 0.00 | 77 | 1026.6 |
| 20260505001542 | 55 | 43 | 7.8 | 20.9 | 0.00 | 0.00 | 0.00 | 78 | 1026.4 |
| 20260505001034 | 54 | 77 | 7.0 | 15.6 | 0.00 | 0.00 | 0.00 | 80 | 1026.4 |
| 20260505000534 | 53 | 88 | 7.0 | 13.9 | 0.00 | 0.00 | 0.00 | 81 | 1026.5 |
| 20260505000049 | 53 | 84 | 6.1 | 13.9 | 0.00 | 0.00 | 0.00 | 81 | 1026.2 |
| 20260504235535 | 53 | 79 | 6.1 | 15.6 | 0.00 | 0.00 | 0.00 | 82 | 1026.4 |
| 20260504235035 | 53 | 105 | 6.1 | 15.6 | 0.00 | 0.00 | 0.00 | 82 | 1026.2 |
| 20260504234552 | 52 | 120 | 6.1 | 13.9 | 0.00 | 0.00 | 0.00 | 82 | 1026.1 |
| 20260504234034 | 52 | 122 | 7.8 | 14.8 | 0.00 | 0.00 | 0.00 | 82 | 1026.1 |
| 20260504233535 | 52 | 79 | 7.0 | 14.8 | 0.00 | 0.00 | 0.00 | 83 | 1026.1 |
| 20260504233049 | 52 | 70 | 7.0 | 16.5 | 0.00 | 0.00 | 0.00 | 83 | 1026.1 |
| 20260504232535 | 52 | 93 | 5.2 | 16.5 | 0.00 | 0.00 | 0.00 | 83 | 1026.1 |
| 20260504232034 | 52 | 102 | 7.0 | 13.0 | 0.00 | 0.00 | 0.00 | 83 | 1026.0 |
| 20260504231543 | 52 | 78 | 6.1 | 15.6 | 0.00 | 0.00 | 0.00 | 83 | 1025.9 |
| 20260504231034 | 52 | 64 | 7.0 | 15.6 | 0.00 | 0.00 | 0.00 | 83 | 1025.9 |
| 20260504230535 | 51 | 105 | 7.0 | 14.8 | 0.00 | 0.00 | 0.00 | 83 | 1025.7 |
| 20260504230044 | 51 | 120 | 7.0 | 14.8 | 0.00 | 0.00 | 0.00 | 83 | 1025.7 |
| 20260504225535 | 51 | 89 | 7.0 | 15.6 | 0.00 | 0.00 | 0.00 | 83 | 1025.6 |
| 20260504225034 | 51 | 109 | 7.8 | 15.6 | 0.00 | 0.00 | 0.00 | 83 | 1025.5 |
| 20260504224542 | 51 | 85 | 7.0 | 14.8 | 0.00 | 0.00 | 0.00 | 83 | 1025.3 |
| 20260504224036 | 51 | 107 | 7.0 | 15.6 | 0.00 | 0.00 | 0.00 | 83 | 1025.3 |
| 20260504223535 | 51 | 101 | 7.0 | 15.6 | 0.00 | 0.00 | 0.00 | 83 | 1025.2 |
| 20260504223043 | 52 | 95 | 8.7 | 15.6 | 0.00 | 0.00 | 0.00 | 83 | 1025.1 |
| 20260504222534 | 52 | 88 | 6.1 | 14.8 | 0.00 | 0.00 | 0.00 | 83 | 1025.2 |
| 20260504222034 | 52 | 77 | 7.8 | 13.9 | 0.00 | 0.00 | 0.00 | 83 | 1025.1 |
| 20260504221542 | 52 | 77 | 7.0 | 15.6 | 0.00 | 0.00 | 0.00 | 83 | 1025.1 |
| 20260504221034 | 52 | 104 | 7.8 | 15.6 | 0.00 | 0.00 | 0.00 | 83 | 1025.0 |
| 20260504220534 | 52 | 58 | 7.8 | 15.6 | 0.00 | 0.00 | 0.00 | 83 | 1025.0 |
| 20260504220056 | 52 | 88 | 7.8 | 15.6 | 0.00 | 0.00 | 0.00 | 83 | 1025.1 |
| 20260504215534 | 52 | 77 | 8.7 | 15.6 | 0.00 | 0.00 | 0.00 | 83 | 1025.1 |
| 20260504215037 | 52 | 96 | 7.8 | 16.5 | 0.00 | 0.00 | 0.00 | 83 | 1025.1 |
| 20260504214547 | 52 | 123 | 7.0 | 16.5 | 0.00 | 0.00 | 0.00 | 83 | 1025.0 |
| 20260504214035 | 52 | 90 | 7.8 | 17.4 | 0.00 | 0.00 | 0.00 | 83 | 1025.0 |
| 20260504213535 | 52 | 104 | 7.8 | 17.4 | 0.00 | 0.00 | 0.00 | 83 | 1025.0 |
| 20260504213101 | 52 | 47 | 5.2 | 13.9 | 0.00 | 0.00 | 0.00 | 83 | 1025.2 |
| 20260504212535 | 52 | 81 | 7.0 | 14.8 | 0.00 | 0.00 | 0.00 | 83 | 1025.0 |
| 20260504212035 | 52 | 87 | 6.1 | 14.8 | 0.00 | 0.00 | 0.00 | 83 | 1025.1 |
| 20260504211544 | 52 | 60 | 6.1 | 13.0 | 0.00 | 0.00 | 0.00 | 83 | 1025.2 |
| 20260504211034 | 52 | 88 | 6.1 | 13.0 | 0.00 | 0.00 | 0.00 | 82 | 1025.0 |
| 20260504210534 | 52 | 102 | 6.1 | 13.0 | 0.00 | 0.00 | 0.00 | 82 | 1025.2 |
| 20260504210043 | 53 | 58 | 6.1 | 13.0 | 0.00 | 0.00 | 0.00 | 82 | 1025.1 |
| 20260504205536 | 53 | 112 | 7.0 | 13.9 | 0.00 | 0.00 | 0.00 | 82 | 1025.0 |
| 20260504205034 | 53 | 129 | 7.0 | 13.9 | 0.00 | 0.00 | 0.00 | 82 | 1025.2 |
| 20260504204545 | 53 | 60 | 6.1 | 13.9 | 0.00 | 0.00 | 0.00 | 82 | 1025.1 |
| 20260504204037 | 52 | 126 | 7.0 | 13.0 | 0.00 | 0.00 | 0.00 | 82 | 1025.0 |
| 20260504203535 | 52 | 80 | 6.1 | 13.0 | 0.00 | 0.00 | 0.00 | 82 | 1025.1 |
| 20260504203047 | 52 | 121 | 6.1 | 15.6 | 0.00 | 0.00 | 0.00 | 82 | 1025.0 |
| 20260504202535 | 52 | 121 | 6.1 | 15.6 | 0.00 | 0.00 | 0.00 | 82 | 1025.0 |
| 20260504202035 | 52 | 69 | 5.2 | 12.2 | 0.00 | 0.00 | 0.00 | 82 | 1025.0 |
| 20260504201544 | 53 | 111 | 6.1 | 13.0 | 0.00 | 0.00 | 0.00 | 82 | 1025.0 |
| 20260504201035 | 53 | 72 | 6.1 | 16.5 | 0.00 | 0.00 | 0.00 | 82 | 1025.0 |
| 20260504200535 | 53 | 104 | 6.1 | 16.5 | 0.00 | 0.00 | 0.00 | 82 | 1025.0 |
| 20260504200053 | 52 | 77 | 4.3 | 11.3 | 0.00 | 0.00 | 0.00 | 82 | 1025.0 |
| 20260504195535 | 52 | 133 | 5.2 | 12.2 | 0.00 | 0.00 | 0.00 | 82 | 1025.0 |
| 20260504195034 | 52 | 99 | 4.3 | 12.2 | 0.00 | 0.00 | 0.00 | 82 | 1025.0 |
| 20260504194556 | 52 | 56 | 5.2 | 12.2 | 0.00 | 0.00 | 0.00 | 82 | 1024.8 |
| 20260504194035 | 53 | 100 | 5.2 | 13.9 | 0.00 | 0.00 | 0.00 | 82 | 1025.0 |
| 20260504193535 | 53 | 96 | 6.1 | 13.9 | 0.00 | 0.00 | 0.00 | 81 | 1025.0 |
| 20260504193103 | 53 | 89 | 7.0 | 14.8 | 0.00 | 0.00 | 0.00 | 82 | 1024.9 |
| 20260504192534 | 53 | 101 | 7.0 | 14.8 | 0.00 | 0.00 | 0.00 | 81 | 1024.9 |
| 20260504192038 | 53 | 112 | 5.2 | 13.9 | 0.00 | 0.00 | 0.00 | 81 | 1024.8 |
| 20260504191549 | 53 | 108 | 5.2 | 13.9 | 0.00 | 0.00 | 0.00 | 81 | 1024.7 |
| 20260504191035 | 53 | 122 | 7.8 | 15.6 | 0.00 | 0.00 | 0.00 | 81 | 1024.7 |
| 20260504190534 | 53 | 109 | 7.0 | 15.6 | 0.00 | 0.00 | 0.00 | 81 | 1024.8 |
| 20260504190049 | 53 | 80 | 6.1 | 13.9 | 0.00 | 0.00 | 0.00 | 81 | 1024.9 |
| 20260504185541 | 53 | 89 | 6.1 | 13.9 | 0.00 | 0.00 | 0.00 | 81 | 1024.8 |
| 20260504185036 | 53 | 103 | 6.1 | 13.9 | 0.00 | 0.00 | 0.00 | 81 | 1024.9 |
| 20260504184551 | 53 | 110 | 6.1 | 13.9 | 0.00 | 0.00 | 0.00 | 80 | 1025.0 |
| 20260504184037 | 54 | 100 | 6.1 | 13.9 | 0.00 | 0.00 | 0.00 | 80 | 1025.1 |
| 20260504183539 | 54 | 89 | 7.0 | 14.8 | 0.00 | 0.00 | 0.00 | 80 | 1025.0 |
| 20260504183057 | 54 | 93 | 7.0 | 16.5 | 0.00 | 0.00 | 0.00 | 80 | 1025.0 |
| 20260504182536 | 54 | 75 | 7.0 | 16.5 | 0.00 | 0.00 | 0.00 | 80 | 1025.0 |
| 20260504182036 | 54 | 120 | 5.2 | 13.0 | 0.00 | 0.00 | 0.00 | 80 | 1025.0 |
| 20260504181551 | 54 | 108 | 6.1 | 13.0 | 0.00 | 0.00 | 0.00 | 80 | 1025.2 |
| 20260504181036 | 54 | 112 | 5.2 | 12.2 | 0.00 | 0.00 | 0.00 | 80 | 1025.1 |
| 20260504180536 | 54 | 145 | 6.1 | 14.8 | 0.00 | 0.00 | 0.00 | 80 | 1025.2 |
| 20260504180130 | 54 | 175 | 6.1 | 14.8 | 0.00 | 0.00 | 0.00 | 80 | 1025.1 |
| 20260504175539 | 54 | 114 | 5.2 | 13.0 | 0.00 | 0.00 | 0.00 | 80 | 1025.0 |
| 20260504175036 | 54 | 102 | 6.1 | 12.2 | 0.00 | 0.00 | 0.00 | 80 | 1025.1 |
| 20260504174550 | 54 | 118 | 6.1 | 13.9 | 0.00 | 0.00 | 0.00 | 80 | 1025.2 |
| 20260504174036 | 54 | 118 | 6.1 | 13.9 | 0.00 | 0.00 | 0.00 | 80 | 1025.2 |
| 20260504173537 | 54 | 92 | 6.1 | 14.8 | 0.00 | 0.00 | 0.00 | 80 | 1025.2 |
| 20260504173050 | 54 | 79 | 6.1 | 14.8 | 0.00 | 0.00 | 0.00 | 80 | 1025.2 |
| 20260504172536 | 54 | 120 | 5.2 | 13.0 | 0.00 | 0.00 | 0.00 | 80 | 1025.2 |
| 20260504172038 | 54 | 129 | 5.2 | 13.0 | 0.00 | 0.00 | 0.00 | 80 | 1025.2 |
| 20260504171552 | 54 | 105 | 5.2 | 13.0 | 0.00 | 0.00 | 0.00 | 80 | 1025.3 |
| 20260504171036 | 54 | 88 | 5.2 | 13.0 | 0.00 | 0.00 | 0.00 | 79 | 1025.3 |
| 20260504170537 | 54 | 87 | 6.1 | 13.0 | 0.00 | 0.00 | 0.00 | 79 | 1025.3 |
| 20260504151036 | 55 | 88 | 3.5 | 9.6 | 0.00 | 0.00 | 0.00 | 77 | 1026.0 |
| 20260504150539 | 55 | 106 | 3.5 | 8.7 | 0.00 | 0.00 | 0.00 | 76 | 1026.0 |
| 20260504141036 | 56 | 137 | 2.6 | 9.6 | 0.00 | 0.00 | 0.00 | 75 | 1026.0 |
| 20260504140536 | 56 | 66 | 2.6 | 9.6 | 0.00 | 0.00 | 0.00 | 75 | 1026.0 |
| 20260504130537 | 58 | 95 | 1.7 | 9.6 | 0.00 | 0.00 | 0.00 | 73 | 1026.0 |
| 20260504110536 | 60 | 129 | 0.9 | 4.3 | 0.00 | 0.00 | 0.00 | 72 | 1026.2 |
| 20260504100536 | 60 | 0 | 0.0 | 0.9 | 0.00 | 0.00 | 0.00 | 72 | 1025.5 |
| 20260504100114 | 61 | 145 | 0.0 | 0.9 | 0.00 | 0.00 | 0.00 | 72 | 1025.4 |
| 20260504081538 | 69 | 206 | 0.0 | 3.5 | 0.00 | 0.00 | 0.00 | 59 | 1025.2 |
| 20260504081035 | 69 | 89 | 0.0 | 2.6 | 0.00 | 0.00 | 0.00 | 57 | 1025.2 |
| 20260504080535 | 70 | 0 | 0.0 | 2.6 | 0.00 | 0.00 | 0.00 | 58 | 1025.3 |
| 20260504050536 | 68 | 0 | 0.0 | 2.6 | 0.00 | 0.00 | 0.00 | 61 | 1026.0 |
| 20260504045535 | 67 | 0 | 0.9 | 3.5 | 0.00 | 0.00 | 0.00 | 64 | 1026.3 |
| 20260504045035 | 66 | 0 | 0.0 | 3.5 | 0.00 | 0.00 | 0.00 | 63 | 1026.4 |
| 20260504044542 | 68 | 202 | 0.9 | 6.1 | 0.00 | 0.00 | 0.00 | 61 | 1026.3 |
| 20260504044038 | 67 | 0 | 0.9 | 7.0 | 0.00 | 0.00 | 0.00 | 61 | 1026.4 |
| 20260504043536 | 66 | 77 | 2.6 | 7.0 | 0.00 | 0.00 | 0.00 | 61 | 1026.4 |
| 20260504043052 | 66 | 0 | 0.0 | 6.1 | 0.00 | 0.00 | 0.00 | 61 | 1026.5 |
| 20260504042535 | 66 | 105 | 1.7 | 6.1 | 0.00 | 0.00 | 0.00 | 62 | 1026.6 |
| 20260504042035 | 67 | 354 | 0.9 | 6.1 | 0.00 | 0.00 | 0.00 | 61 | 1026.7 |
| 20260504041541 | 65 | 335 | 0.9 | 6.1 | 0.00 | 0.00 | 0.00 | 62 | 1026.8 |
| 20260504041035 | 66 | 85 | 1.7 | 6.1 | 0.00 | 0.00 | 0.00 | 60 | 1026.9 |
| 20260504040535 | 67 | 0 | 1.7 | 6.1 | 0.00 | 0.00 | 0.00 | 62 | 1027.1 |
| 20260504040041 | 67 | 360 | 0.9 | 6.1 | 0.00 | 0.00 | 0.00 | 64 | 1027.1 |
| 20260504035536 | 66 | 278 | 1.7 | 6.1 | 0.00 | 0.00 | 0.00 | 62 | 1027.3 |
| 20260504035039 | 66 | 339 | 1.7 | 6.1 | 0.00 | 0.00 | 0.00 | 64 | 1027.2 |
| 20260504034552 | 65 | 68 | 1.7 | 6.1 | 0.00 | 0.00 | 0.00 | 64 | 1027.3 |
| 20260504034036 | 64 | 349 | 0.0 | 7.8 | 0.00 | 0.00 | 0.00 | 65 | 1027.3 |
| 20260504033536 | 65 | 75 | 2.6 | 7.8 | 0.00 | 0.00 | 0.00 | 63 | 1027.4 |
| 20260504033043 | 65 | 16 | 1.7 | 6.1 | 0.00 | 0.00 | 0.00 | 65 | 1027.6 |
| 20260504032536 | 64 | 118 | 1.7 | 7.8 | 0.00 | 0.00 | 0.00 | 65 | 1027.6 |
| 20260504032040 | 65 | 317 | 1.7 | 7.8 | 0.00 | 0.00 | 0.00 | 66 | 1027.5 |
| 20260504031540 | 64 | 152 | 2.6 | 7.8 | 0.00 | 0.00 | 0.00 | 67 | 1027.6 |
| 20260504031035 | 65 | 70 | 0.9 | 7.8 | 0.00 | 0.00 | 0.00 | 67 | 1027.7 |
| 20260504030535 | 64 | 10 | 1.7 | 7.8 | 0.00 | 0.00 | 0.00 | 67 | 1027.7 |
| 20260504030050 | 64 | 25 | 1.7 | 8.7 | 0.00 | 0.00 | 0.00 | 70 | 1027.6 |
| 20260504025536 | 64 | 353 | 0.9 | 8.7 | 0.00 | 0.00 | 0.00 | 69 | 1027.7 |
| 20260504025036 | 63 | 101 | 1.7 | 7.0 | 0.00 | 0.00 | 0.00 | 70 | 1027.8 |
| 20260504024544 | 63 | 40 | 1.7 | 7.0 | 0.00 | 0.00 | 0.00 | 69 | 1027.8 |
| 20260504024036 | 63 | 68 | 2.6 | 8.7 | 0.00 | 0.00 | 0.00 | 72 | 1027.8 |
| 20260504023535 | 62 | 112 | 0.9 | 8.7 | 0.00 | 0.00 | 0.00 | 72 | 1027.9 |
| 20260504023035 | 62 | 65 | 3.5 | 8.7 | 0.00 | 0.00 | 0.00 | 70 | 1027.8 |
| 20260504022536 | 62 | 64 | 3.5 | 9.6 | 0.00 | 0.00 | 0.00 | 71 | 1027.7 |
| 20260504022035 | 61 | 84 | 3.5 | 9.6 | 0.00 | 0.00 | 0.00 | 72 | 1027.9 |
| 20260504021545 | 61 | 69 | 2.6 | 10.4 | 0.00 | 0.00 | 0.00 | 71 | 1027.7 |
| 20260504021035 | 60 | 79 | 4.3 | 11.3 | 0.00 | 0.00 | 0.00 | 74 | 1027.8 |
| 20260504020535 | 60 | 76 | 3.5 | 11.3 | 0.00 | 0.00 | 0.00 | 75 | 1027.7 |
| 20260504020053 | 59 | 67 | 4.3 | 13.0 | 0.00 | 0.00 | 0.00 | 75 | 1027.8 |
| 20260504015536 | 59 | 51 | 7.0 | 13.0 | 0.00 | 0.00 | 0.00 | 75 | 1027.8 |
| 20260504015036 | 59 | 85 | 5.2 | 13.0 | 0.00 | 0.00 | 0.00 | 75 | 1027.8 |
| 20260504014548 | 59 | 180 | 3.5 | 13.0 | 0.00 | 0.00 | 0.00 | 76 | 1027.8 |
| 20260504014035 | 58 | 77 | 5.2 | 13.9 | 0.00 | 0.00 | 0.00 | 77 | 1027.7 |
| 20260504013536 | 58 | 180 | 5.2 | 13.9 | 0.00 | 0.00 | 0.00 | 77 | 1027.7 |
| 20260504013038 | 58 | 75 | 7.0 | 12.2 | 0.00 | 0.00 | 0.00 | 77 | 1027.7 |
| 20260504012535 | 58 | 114 | 7.0 | 12.2 | 0.00 | 0.00 | 0.00 | 77 | 1027.6 |
| 20260504012037 | 57 | 180 | 6.1 | 12.2 | 0.00 | 0.00 | 0.00 | 78 | 1027.8 |
| 20260504011547 | 57 | 70 | 5.2 | 11.3 | 0.00 | 0.00 | 0.00 | 78 | 1027.6 |
| 20260504011035 | 57 | 72 | 5.2 | 13.9 | 0.00 | 0.00 | 0.00 | 79 | 1027.6 |
| 20260504010535 | 57 | 98 | 6.1 | 13.9 | 0.00 | 0.00 | 0.00 | 79 | 1027.7 |
| 20260504010044 | 56 | 72 | 6.1 | 13.9 | 0.00 | 0.00 | 0.00 | 80 | 1027.6 |
| 20260504005536 | 56 | 70 | 5.2 | 14.8 | 0.00 | 0.00 | 0.00 | 80 | 1027.6 |
| 20260504005036 | 56 | 92 | 5.2 | 14.8 | 0.00 | 0.00 | 0.00 | 81 | 1027.6 |
| 20260504004543 | 56 | 89 | 6.1 | 13.9 | 0.00 | 0.00 | 0.00 | 81 | 1027.6 |
| 20260504004036 | 55 | 85 | 6.1 | 14.8 | 0.00 | 0.00 | 0.00 | 82 | 1027.7 |